Location: Newark
(51.3318°N, 0.0053°E)
Time: 05:32:13
(UTC+00:00)

BlueWalker 3 - Pass Details

Date: 29 November 2022
Orbit: 499 x 517 km, 53.2° (Epoch: 28 January)

Event Time Altitude Azimuth Distance (km) Brightness Sun altitude
Rises 18:24:52 0° 267° (W) 2,629 7.1 -22.3°
Reaches altitude 10° 18:27:05 10° 270° (W) 1,739 5.8 -22.6°
Enters shadow 18:30:43 64° 322° (NW) 570 2.2 -23.2°
